STARLINK-32441, 61668

Orbit data source: Space-Track

STARLINK-32441, 61668 is a payload satellite owned by SpaceX/Seattle (US) in LEO that was launched on Sat, 26 Oct 2024 UTC via an FALCON 9 launch vehicle from the Air Force Eastern Test Range (AFETR). Payload-class satellites include a variety of spacecraft equipped with specific instruments for various scientific and technological missions. These include communications satellites like Starlink; space stations such as the ISS; scientific satellites like the Hubble; Earth observation satellites from companies like Planet Labs, Umbra, and HawkEye 360; GPS; miniature CubeSats for education and research; and military/defense satellites.

Loading next visibility...
Identifier
61668, 2024-193H
Orbit
LEO
Country
Flag of USUS
Related business
Manufacturer
SpaceX/Seattle
Mission
Operational Commercial Communications
Bus & Motor
STARLINK V2M, Unknown motor
Mass
730 kg wet, ~700 kg dry
Launch date (UTC)
2024-10-26 (1 year ago)
Launch vehicle
FALCON 9
Launch site
Air Force Eastern Test Range (AFETR)
Object type
Payload
Rocket body
Debris
Shape & HBR
Box + 2 Pan, 17.7 m
Radar Cross Section
33.884 m², Large (>1 m²)

Expand to show TLE details & history
Last TLE update: 6 hours ago

TLE from 6 hours ago
0 STARLINK-32441
1 61668U 24193H   25312.19481416  .00003508  00000-0  13048-3 0  9998
2 61668  53.1608 295.4531 0001395  60.8104 299.3037 15.30208658 57922
Epoch: 2025-11-08T04:40Z
TLE epoch observation values (Epoch: 2025-11-08T04:40:31.943Z)
Latitude
0.00004°
Longitude
177.69212°
Altitude
475.621 km
Speed
7.629 km/s
True Right ascension
19h 41m 48s
True Declination
0° 00' 00"
Sunlit
Object was in daylight at epoch
Visualization orbit readout
Latitude
Unknown
Longitude
Unknown
Altitude
Unknown
Speed
Unknown
Apparent Right ascension
Unknown
Apparent Declination
Unknown
Sunlit
N/A
Visualization observer readout
Local Sidereal Time
06:41:42
Azimuth
Unknown
Elevation
Unknown
Doppler factor
Unknown
Orbital elements
Apogee altitude
476.402 km
Perigee altitude
474.489 km
Semi-major axis
6,853.583 km
Eccentricity
0.00014
Inclination
53.1608°
RAAN
295.4531°
Arg. of periapsis
60.8104°
True anomaly
299.28976°
Mean anomaly
299.3037°
Eccentric anomaly
299.29673°
Mean motion
3.82531 °/min
Orbital period
94.11 mins
BSTAR
0.00013048
Loading maneuver chart data...
Computing Atmospheric mass density...
Loading historical data...
Loading historical data...
Loading historical data...
Loading historical data...
Loading historical data...
Loading historical data...
Loading historical data...

Documentation

Showing up to 5 results
|